Location: Freemans Gardens
(41.6414°N, 83.6077°W)
Time: 03:09:52
(UTC+00:00)

Cosmos 1953 Rocket - Pass Details

Date: 29 October 2020
Orbit: 605 x 634 km, 82.5° (Epoch: 26 November)

Event Time Altitude Azimuth Distance (km) Brightness Sun altitude
Rises 23:02:43 0° 354° (N) 2,905 6.9 -6.3°
Reaches altitude 10° 23:04:58 10° 356° (N) 1,999 6.1 -6.7°
Maximum altitude 23:09:24 74° 82° (E) 656 3.5 -7.6°
Drops below altitude 10° 23:13:49 10° 167° (SSE) 2,000 6.2 -8.4°
Sets 23:16:04 0° 169° (S) 2,906 7.0 -8.8°
